SCP
-0 -0 -0 0 -0 0 0 0 0 0 0 0 0 0 0 0 0 0 0 0 0 0 0 0 0 0 0 0 0 0 0 0
0 -0 -0 0 -0 0 -0 -0 0 0 0 0 0 0 0 0 0 0 0 0 0 0 0 0 0 0 0 0 0 0 0 0
0 0 0 0 0 0 -0 -0 -0 -0 0 0 0 0 0 0 0 0 0 0 0 0 0 0 0 0 0 0 0 0 0 0
0 0 0 0 0 0 0 0 0 -0 -0 -0 -0 0 0 0 0 0 0 0 0 0 0 0 0 0 0 0 0 0 0 0
0 0 0 0 0 0 0 1 0 0 0 -0 0 0 0 0 1 0 0 0 0 0 0 0 0 0 0 0 0 0 0 0
0 0 0 0 0 0 0 1 1 1 0 0 1 0 0 1 1 1 0 0 0 0 0 0 0 0 0 0 0 0 0 0
0 0 0 0 0 0 0 0 0 0 1 1 1 1 1 1 1 0 0 0 1 0 0 0 1 0 1 0 0 0 0 0
0 0 0 0 0 0 0 0 0 0 0 0 0 0 0 0 0 0 0 0 1 1 1 1 1 1 1 1 0 0 0 0
0 0 0 0 0 0 0 0 0 0 0 0 0 0 0 0 0 0 0 0 0 0 1 1 1 1 1 1 0 0 0 0
-0 0 0 0 0 0 0 0 0 0 0 0 0 0 0 0 0 0 0 0 0 0 0 0 0 1 1 1 1 0 0 0
-0 -0 -0 -0 -0 -0 -0 -0 -0 0 0 0 0 0 0 0 0 0 0 0 0 0 0 0 0 0 0 0 0 0 0 0
-0 -0 -0 -0 -0 -0 -0 -0 -0 -0 0 0 0 0 0 0 0 0 0 0 0 0 0 0 0 0 0 0 0 0 0 0
0 0 0 0 -0 -0 -0 -0 -0 -0 -0 -0 0 0 0 0 0 0 0 0 0 0 0 0 0 0 1 1 0 0 0 0
-0 0 0 0 0 -0 -0 -0 -0 -0 -0 -0 -0 0 0 0 0 0 0 0 0 0 0 0 1 1 1 1 0 0 0 0
0 0 0 0 0 0 0 -0 -0 -0 -0 -0 -0 -0 0 0 0 0 0 0 0 0 0 0 0 1 1 1 0 0 0 0
0 0 0 0 0 0 0 0 0 0 -0 -0 -0 -0 -0 -0 0 0 0 0 0 0 0 0 0 0 0 1 1 1 0 0
0 0 0 0 0 0 0 0 0 0 0 -0 -0 -0 -0 -0 0 0 0 0 0 0 0 0 0 0 0 0 1 0 0 0
0 0 0 0 0 0 0 0 0 0 0 0 0 0 -0 -0 0 0 0 0 0 0 0 0 0 0 0 0 0 1 0 0
0 0 0 0 0 0 0 0 0 0 0 0 0 0 0 0 0 0 0 0 0 0 0 0 0 0 0 0 0 0 0 0
Wind_Speed_500mb
22 16 7 5 5 8 14 19 20 18 15 13 12 12 12 12 12 13 15 16 16 17 19 19 20 20 20 21 22 22 22 22
18 15 17 13 8 8 10 13 16 16 15 13 12 13 14 15 16 16 16 17 18 19 20 21 22 22 23 24 25 25 26 27
18 10 7 4 6 5 7 10 13 14 15 15 14 15 18 21 23 23 23 23 24 24 25 25 25 26 26 27 27 28 28 30
11 9 8 9 8 6 7 7 7 9 13 14 14 17 21 26 29 32 32 31 31 31 32 32 31 31 31 31 32 32 31 33
8 10 9 9 6 5 7 6 5 6 9 10 12 17 23 29 33 36 38 39 39 38 38 38 37 36 37 36 36 37 36 37
18 18 13 7 6 3 12 12 10 11 13 14 15 24 30 33 35 37 41 41 42 44 44 45 44 43 42 42 42 41 41 42
24 20 12 7 5 7 4 9 16 19 17 21 24 27 27 30 35 39 41 45 46 48 49 50 49 49 49 49 47 47 48 44
21 14 14 14 12 8 4 8 15 20 24 27 32 31 28 30 33 38 41 42 43 46 51 49 47 44 43 41 39 41 46 52
17 17 17 19 22 22 17 14 16 23 30 34 36 39 37 35 36 35 43 47 46 46 47 48 47 43 42 43 44 47 45 45
22 18 24 27 31 39 34 29 25 23 25 32 39 40 39 45 45 45 46 49 51 53 54 55 56 52 51 48 48 47 51 50
29 22 24 30 36 44 39 33 37 39 31 29 33 39 43 44 47 49 50 49 50 51 52 65 66 64 63 60 59 54 50 51
26 26 23 30 39 42 47 42 50 53 45 34 33 35 38 40 43 47 52 52 50 54 57 59 62 57 56 58 59 60 57 58
13 10 19 29 36 41 43 45 47 55 60 47 37 36 41 45 46 45 46 49 50 54 60 63 58 59 60 62 62 62 61 62
7 11 18 29 35 40 45 50 53 59 59 60 52 45 44 43 47 51 49 48 51 56 55 53 62 63 67 66 67 65 69 72
6 11 12 22 32 36 37 39 46 55 55 59 61 56 58 56 51 50 53 55 55 55 53 52 54 58 65 73 75 70 76 68
10 12 15 25 27 28 29 34 42 47 52 54 58 61 68 68 60 57 56 58 61 63 63 53 51 57 67 65 66 71 75 74
13 12 18 26 27 26 30 36 39 42 47 49 54 63 72 78 80 76 70 67 64 66 68 65 58 56 64 65 59 65 68 67
14 15 24 24 25 26 31 36 39 44 50 57 61 66 71 77 82 85 83 81 73 68 66 63 62 58 57 62 60 47 26 32
15 23 23 24 21 25 33 38 42 49 57 62 68 75 81 84 90 89 86 84 82 73 70 65 60 58 56 51 53 60 59 61
Wind_Direction_500mb
153 173 159 188 206 222 219 209 202 199 194 190 196 197 201 210 213 215 219 219 223 226 227 228 229 229 226 226 229 232 233 238
134 164 178 181 212 210 205 211 211 215 219 220 225 233 236 239 246 249 247 248 247 247 247 246 244 243 240 236 235 237 239 242
141 161 176 191 214 188 197 204 207 212 224 229 237 249 256 259 259 259 260 261 260 257 255 253 256 257 256 254 250 246 245 247
114 145 168 190 205 208 208 211 217 215 220 230 244 257 262 263 264 266 265 264 264 265 265 263 259 258 259 259 258 255 252 252
128 137 168 240 212 252 225 214 255 268 264 256 266 275 278 273 269 267 269 271 272 270 269 268 267 267 267 266 264 261 259 256
119 134 119 145 55 343 233 210 230 255 265 266 276 294 290 288 280 274 275 275 274 273 271 268 264 263 262 264 264 266 267 265
90 89 97 71 28 13 2 215 231 235 248 254 264 285 285 288 287 283 279 277 276 274 270 268 268 265 262 262 265 268 266 266
55 50 46 38 26 5 305 261 256 257 251 257 264 266 265 279 281 284 283 287 286 285 277 269 265 266 269 271 271 273 273 268
51 46 31 16 3 358 348 325 298 276 265 261 264 262 260 265 268 272 279 283 285 287 283 280 272 269 268 269 273 278 279 281
51 46 40 28 18 7 348 339 328 312 291 279 268 269 270 266 266 267 269 276 284 284 280 281 276 272 274 267 273 275 276 276
43 43 30 22 15 8 6 358 355 347 324 294 280 272 270 269 270 269 270 273 274 276 274 275 274 274 275 271 271 269 276 275
35 25 19 10 8 8 10 9 10 10 356 328 296 286 280 279 277 276 274 274 273 265 266 271 273 268 273 272 273 275 277 273
29 28 14 1 2 2 1 4 0 4 8 0 339 309 293 288 286 284 284 283 281 274 270 269 265 268 269 274 274 277 279 279
17 2 360 353 354 354 350 354 352 354 356 358 358 353 341 320 301 294 291 288 284 282 284 281 270 266 266 268 270 272 279 281
341 334 325 344 347 340 337 339 340 344 345 347 348 347 344 340 326 313 297 288 286 285 282 283 281 271 262 261 267 273 275 278
309 306 316 340 328 317 316 321 327 332 334 337 338 337 335 335 333 324 313 301 289 285 284 283 283 280 268 262 265 268 270 274
275 295 324 328 314 303 302 312 319 323 327 327 326 327 328 329 329 326 318 312 301 293 284 280 278 278 274 268 266 265 273 276
278 303 316 315 303 294 300 312 315 318 318 318 319 320 321 321 320 319 316 311 304 292 288 282 278 275 276 270 266 261 252 259
289 308 312 304 283 288 308 309 309 311 313 315 315 314 312 311 310 309 308 307 303 293 282 282 277 270 268 271 266 262 252 255
Wind_Speed_850mb
22 16 7 5 5 8 14 19 20 18 15 13 12 12 12 12 12 13 15 16 16 17 19 19 20 20 20 21 22 22 22 22
18 15 17 13 8 8 10 13 16 16 15 13 12 13 14 15 16 16 16 17 18 19 20 21 22 22 23 24 25 25 26 27
18 10 7 4 6 5 7 10 13 14 15 15 14 15 18 21 23 23 23 23 24 24 25 25 25 26 26 27 27 28 28 30
11 9 8 9 8 6 7 7 7 9 13 14 14 17 21 26 29 32 32 31 31 31 32 32 31 31 31 31 32 32 31 33
8 10 9 9 6 5 7 6 5 6 9 10 12 17 23 29 33 36 38 39 39 38 38 38 37 36 37 36 36 37 36 37
18 18 13 7 6 3 12 12 10 11 13 14 15 24 30 33 35 37 41 41 42 44 44 45 44 43 42 42 42 41 41 42
24 20 12 7 5 7 4 9 16 19 17 21 24 27 27 30 35 39 41 45 46 48 49 50 49 49 49 49 47 47 48 44
21 14 14 14 12 8 4 8 15 20 24 27 32 31 28 30 33 38 41 42 43 46 51 49 47 44 43 41 39 41 46 52
17 17 17 19 22 22 17 14 16 23 30 34 36 39 37 35 36 35 43 47 46 46 47 48 47 43 42 43 44 47 45 45
22 18 24 27 31 39 34 29 25 23 25 32 39 40 39 45 45 45 46 49 51 53 54 55 56 52 51 48 48 47 51 50
29 22 24 30 36 44 39 33 37 39 31 29 33 39 43 44 47 49 50 49 50 51 52 65 66 64 63 60 59 54 50 51
26 26 23 30 39 42 47 42 50 53 45 34 33 35 38 40 43 47 52 52 50 54 57 59 62 57 56 58 59 60 57 58
13 10 19 29 36 41 43 45 47 55 60 47 37 36 41 45 46 45 46 49 50 54 60 63 58 59 60 62 62 62 61 62
7 11 18 29 35 40 45 50 53 59 59 60 52 45 44 43 47 51 49 48 51 56 55 53 62 63 67 66 67 65 69 72
6 11 12 22 32 36 37 39 46 55 55 59 61 56 58 56 51 50 53 55 55 55 53 52 54 58 65 73 75 70 76 68
10 12 15 25 27 28 29 34 42 47 52 54 58 61 68 68 60 57 56 58 61 63 63 53 51 57 67 65 66 71 75 74
13 12 18 26 27 26 30 36 39 42 47 49 54 63 72 78 80 76 70 67 64 66 68 65 58 56 64 65 59 65 68 67
14 15 24 24 25 26 31 36 39 44 50 57 61 66 71 77 82 85 83 81 73 68 66 63 62 58 57 62 60 47 26 32
15 23 23 24 21 25 33 38 42 49 57 62 68 75 81 84 90 89 86 84 82 73 70 65 60 58 56 51 53 60 59 61
Wind_Direction_850mb
153 173 159 188 206 222 219 209 202 199 194 190 196 197 201 210 213 215 219 219 223 226 227 228 229 229 226 226 229 232 233 238
134 164 178 181 212 210 205 211 211 215 219 220 225 233 236 239 246 249 247 248 247 247 247 246 244 243 240 236 235 237 239 242
141 161 176 191 214 188 197 204 207 212 224 229 237 249 256 259 259 259 260 261 260 257 255 253 256 257 256 254 250 246 245 247
114 145 168 190 205 208 208 211 217 215 220 230 244 257 262 263 264 266 265 264 264 265 265 263 259 258 259 259 258 255 252 252
128 137 168 240 212 252 225 214 255 268 264 256 266 275 278 273 269 267 269 271 272 270 269 268 267 267 267 266 264 261 259 256
119 134 119 145 55 343 233 210 230 255 265 266 276 294 290 288 280 274 275 275 274 273 271 268 264 263 262 264 264 266 267 265
90 89 97 71 28 13 2 215 231 235 248 254 264 285 285 288 287 283 279 277 276 274 270 268 268 265 262 262 265 268 266 266
55 50 46 38 26 5 305 261 256 257 251 257 264 266 265 279 281 284 283 287 286 285 277 269 265 266 269 271 271 273 273 268
51 46 31 16 3 358 348 325 298 276 265 261 264 262 260 265 268 272 279 283 285 287 283 280 272 269 268 269 273 278 279 281
51 46 40 28 18 7 348 339 328 312 291 279 268 269 270 266 266 267 269 276 284 284 280 281 276 272 274 267 273 275 276 276
43 43 30 22 15 8 6 358 355 347 324 294 280 272 270 269 270 269 270 273 274 276 274 275 274 274 275 271 271 269 276 275
35 25 19 10 8 8 10 9 10 10 356 328 296 286 280 279 277 276 274 274 273 265 266 271 273 268 273 272 273 275 277 273
29 28 14 1 2 2 1 4 0 4 8 0 339 309 293 288 286 284 284 283 281 274 270 269 265 268 269 274 274 277 279 279
17 2 360 353 354 354 350 354 352 354 356 358 358 353 341 320 301 294 291 288 284 282 284 281 270 266 266 268 270 272 279 281
341 334 325 344 347 340 337 339 340 344 345 347 348 347 344 340 326 313 297 288 286 285 282 283 281 271 262 261 267 273 275 278
309 306 316 340 328 317 316 321 327 332 334 337 338 337 335 335 333 324 313 301 289 285 284 283 283 280 268 262 265 268 270 274
275 295 324 328 314 303 302 312 319 323 327 327 326 327 328 329 329 326 318 312 301 293 284 280 278 278 274 268 266 265 273 276
278 303 316 315 303 294 300 312 315 318 318 318 319 320 321 321 320 319 316 311 304 292 288 282 278 275 276 270 266 261 252 259
289 308 312 304 283 288 308 309 309 311 313 315 315 314 312 311 310 309 308 307 303 293 282 282 277 270 268 271 266 262 252 255